"Pseudo-MPEC" for P10OFlI

Created 2019 Jun 15 19:08:08 UT using Find_Orb

Click here for an explanation of pseudo-MPECs

 
 Astrometry: 
     P10OFlI  C2019 06 01tVr5mvpdS%W4J$#YG(ivgRMDCFDysi)G!\GQ,1*fCs6!PJHY9xFEF51
     P10OFlI  C2019 06 03KDBLiAy2AstrometryJFfK\3Whya.BZyCeIEDxDaIC)O2JNxOteTF51
     P10OFlI  C2019 06 03VR1y+M-'a,$L/JpKHofK8I!$NOV#$u1ZNCY3pA;W'?^kC.E#]qo,F51
     P10OFlI  C2019 06 03LsZ!P7%KI:SFMApH\'PUeAyt7DQtoG[Atow$-*0p]VD$l:-vpsqIF51
     P10OFlI |C2019 06 06G/Gx]=yr8th5ROl\9btI`xOSm\)=U!@0gUG^.@w\bfredacted;5807
     P10OFlI |C2019 06 06kXq*ukS[D(h7dr.tsNP];+^T:X+v@q11*]o%NHclick:LP]coUqi807
     P10OFlI |C2019 06 06(y??;KWo?6To0K[v/k4F:)sDf69ub(#aHvVMS%FCY;T_PPnHA]I5807
     P10OFlI |C2019 06 08fBZ,2s'NV^j$4F+gQ1_F?xQImyhereDPHZpDn1A)_wAOUUP:vVk-807
     P10OFlI |C2019 06 08olnCOavtkforE.aCVcTwF:OgC*vsErOjZy6`mYjT0dEUL`x(I-%I807
     P10OFlI |C2019 06 08GTjD9f8^G\Fs%m,oG3FK_,JA/W2X/VHhN:MvexplanationvEvIJ807

Station data:
(807) Cerro Tololo Observatory, La Serena  (S30.169136 W70.805900)  Chile.
(F51) Pan-STARRS 1, Haleakala  (N20.707235 W156.255910)  US/Hawaii.
   Observers N. Primak, A. Schultz, S. Watters, J. Thiel, T. Goggia. Measurer
   PS1 Science Consortium. 1.8-m Ritchey-Chrétien + CCD.

Orbital elements:  P10OFlI
   Perihelion 2020 Mar 16.417621 +/- 4.02 TT = 10:01:22 (JD 2458924.917621)
Epoch 2019 Jun  8.0 TT = JDT 2458642.5   Earth MOID: 0.7333   AutoNEOCP
M 252.58131757 +/- 1.2              (J2000 ecliptic)
n   0.38035403 +/- 0.00163          Peri.  298.53319 +/- 1.0
a   1.88658927 +/- 0.00539          Node    69.32909 +/- 0.054
e   0.1229287 +/- 0.0012            Incl.   23.56348 +/- 0.29
P   2.59/946.47d           H 20.3   G  0.15   U  8.5  
q 1.65467321 +/- 0.00508    Q 2.11850534 +/- 0.0066
From 10 observations 2019 June 1-8; mean residual 0".16
Residuals in arcseconds: 
190601 F51  .04+  .00     190606 807  .51+  .14-    190608 807  .07+  .01-    
190603 F51  .17-  .09+    190606 807  .29-  .00     190608 807  .08-  .00     
190603 F51  .01+  .05+    190606 807  .12-  .16+    
190603 F51  .06+  .15-    190608 807  .03-  .01-    

Ephemerides (geocentric):
Date (UTC) HH   RA              Dec         delta   r     elong  mag " sig PA
---- -- -- --  -------------   -----------  ------ ------ -----  --- ---- ---
2019 06 15 19  15 35 36.287   -20 09 00.56  1.0132 1.9698 152.3 22.6 4.86 127
2019 06 15 20  15 35 32.832   -20 09 29.77  1.0133 1.9698 152.2 22.6 4.90 127
2019 06 15 21  15 35 29.381   -20 09 58.98  1.0135 1.9697 152.2 22.6 4.95 127
2019 06 15 22  15 35 25.934   -20 10 28.19  1.0137 1.9696 152.1 22.6 4.99 127
2019 06 15 23  15 35 22.490   -20 10 57.39  1.0138 1.9696 152.1 22.6 5.04 127
2019 06 16 00  15 35 19.049   -20 11 26.58  1.0140 1.9695 152.0 22.6 5.08 126
2019 06 16 01  15 35 15.613   -20 11 55.77  1.0142 1.9695 152.0 22.6 5.13 126
2019 06 16 02  15 35 12.179   -20 12 24.95  1.0143 1.9694 151.9 22.6 5.18 126
2019 06 16 03  15 35 08.750   -20 12 54.13  1.0145 1.9694 151.9 22.6 5.22 126
2019 06 16 04  15 35 05.324   -20 13 23.30  1.0146 1.9693 151.8 22.6 5.27 126
2019 06 16 05  15 35 01.901   -20 13 52.47  1.0148 1.9692 151.8 22.6 5.31 126
2019 06 16 06  15 34 58.482   -20 14 21.63  1.0150 1.9692 151.7 22.6 5.36 126
2019 06 16 07  15 34 55.067   -20 14 50.79  1.0151 1.9691 151.7 22.6 5.41 126
2019 06 16 08  15 34 51.656   -20 15 19.94  1.0153 1.9691 151.6 22.6 5.46 126
2019 06 16 09  15 34 48.248   -20 15 49.09  1.0155 1.9690 151.6 22.6 5.50 126
2019 06 16 10  15 34 44.844   -20 16 18.23  1.0156 1.9690 151.5 22.6 5.55 126
2019 06 16 11  15 34 41.443   -20 16 47.37  1.0158 1.9689 151.4 22.6 5.60 126
2019 06 16 12  15 34 38.046   -20 17 16.50  1.0160 1.9688 151.4 22.6 5.65 126
2019 06 16 13  15 34 34.653   -20 17 45.62  1.0161 1.9688 151.3 22.6 5.70 126
2019 06 16 14  15 34 31.263   -20 18 14.75  1.0163 1.9687 151.3 22.6 5.75 126
2019 06 16 15  15 34 27.877   -20 18 43.86  1.0165 1.9687 151.2 22.6 5.79 125
2019 06 16 16  15 34 24.495   -20 19 12.97  1.0167 1.9686 151.2 22.6 5.84 125
2019 06 16 17  15 34 21.116   -20 19 42.08  1.0168 1.9686 151.1 22.6 5.89 125
2019 06 16 18  15 34 17.741   -20 20 11.18  1.0170 1.9685 151.1 22.6 5.94 125
2019 06 16 19  15 34 14.370   -20 20 40.27  1.0172 1.9684 151.0 22.6 5.99 125
2019 06 16 20  15 34 11.003   -20 21 09.36  1.0173 1.9684 151.0 22.6 6.04 125
2019 06 16 21  15 34 07.639   -20 21 38.45  1.0175 1.9683 150.9 22.6 6.09 125
2019 06 16 22  15 34 04.279   -20 22 07.53  1.0177 1.9683 150.9 22.6 6.14 125
2019 06 16 23  15 34 00.922   -20 22 36.60  1.0178 1.9682 150.8 22.6 6.20 125
2019 06 17 00  15 33 57.569   -20 23 05.67  1.0180 1.9682 150.8 22.6 6.25 125
2019 06 17 01  15 33 54.221   -20 23 34.73  1.0182 1.9681 150.7 22.6 6.30 125
2019 06 17 02  15 33 50.875   -20 24 03.79  1.0184 1.9680 150.7 22.6 6.35 125
2019 06 17 03  15 33 47.534   -20 24 32.84  1.0185 1.9680 150.6 22.6 6.40 125
2019 06 17 04  15 33 44.196   -20 25 01.89  1.0187 1.9679 150.6 22.6 6.45 125
2019 06 17 05  15 33 40.862   -20 25 30.93  1.0189 1.9679 150.5 22.6 6.51 125
2019 06 17 06  15 33 37.532   -20 25 59.97  1.0191 1.9678 150.5 22.6 6.56 125
2019 06 17 07  15 33 34.205   -20 26 29.00  1.0192 1.9677 150.4 22.6 6.61 125
2019 06 17 08  15 33 30.883   -20 26 58.03  1.0194 1.9677 150.4 22.6 6.66 124
2019 06 17 09  15 33 27.564   -20 27 27.05  1.0196 1.9676 150.3 22.6 6.72 124
2019 06 17 10  15 33 24.248   -20 27 56.06  1.0198 1.9676 150.3 22.6 6.77 124
2019 06 17 11  15 33 20.937   -20 28 25.07  1.0199 1.9675 150.2 22.6 6.83 124
2019 06 17 12  15 33 17.629   -20 28 54.08  1.0201 1.9675 150.2 22.6 6.88 124
2019 06 17 13  15 33 14.325   -20 29 23.08  1.0203 1.9674 150.1 22.6 6.93 124
2019 06 17 14  15 33 11.025   -20 29 52.07  1.0205 1.9673 150.1 22.6 6.99 124
2019 06 17 15  15 33 07.729   -20 30 21.06  1.0206 1.9673 150.0 22.6 7.04 124
2019 06 17 16  15 33 04.437   -20 30 50.04  1.0208 1.9672 150.0 22.6 7.10 124
2019 06 17 17  15 33 01.148   -20 31 19.02  1.0210 1.9672 149.9 22.6 7.15 124
2019 06 17 18  15 32 57.863   -20 31 47.99  1.0212 1.9671 149.9 22.6 7.21 124